Penn Yan, NY

2:36 PM EST on January 18, 2017 (GMT -0500)
Penn Yan

Weather History for KPEO - February, 2013

Change the Weather History Date:

Wednesday, February 20, 2013

  Actual Average (KITH) Record (KITH)
Temperature  
Mean Temperature 22 °F -  
Max Temperature 25 °F 36 °F 66 °F (1930)
Min Temperature 19 °F 20 °F -11 °F (2015)
Degree Days  
Heating Degree Days 43    
Moisture  
Dew Point 11 °F    
Average Humidity 67    
Maximum Humidity 85    
Minimum Humidity 58    
Precipitation  
Precipitation 0.02 in - - ()
Sea Level Pressure  
Sea Level Pressure 29.89 in    
Wind  
Wind Speed 15 mph (WSW)    
Max Wind Speed 24 mph    
Max Gust Speed 34 mph    
Visibility 6 miles    
Events Fog , Snow    
Averages and records for this station are not official NWS values.
T = Trace of Precipitation, MM = Missing Value Source: NWS Daily Summary

Daily Weather History Graph

Daily Weather History Graph

Search for Another Location

Airport or City:

Trip Planner

Search our weather history database for the weather conditions in past years. The results will help you decide how hot, cold, wet, or windy it might be!

Date:

Astronomy

Feb. 20, 2013 Rise Set
Actual Time 6:57 AM EST 5:46 PM EST
Civil Twilight 6:28 AM EST 6:15 PM EST
Nautical Twilight 5:56 AM EST 6:48 PM EST
Astronomical Twilight 5:23 AM EST 7:21 PM EST
Moon 1:02 PM EST (2/20) 3:20 AM EST (2/20)
Length of Visible Light 11h 46m
Length of Day
10h 49m
Waxing Gibbous, 76% of the Moon is Illuminated
Feb 20
Waxing Gibbous
Feb 25
Full
Mar 4
Last Quarter
Mar 11
New
Mar 19
First Quarter

Hourly Weather History & Observations

Time (EST) Temp. Windchill Dew Point Humidity Pressure Visibility Wind Dir Wind Speed Gust Speed Precip Events Conditions
12:53 AM 25.0 °F 12.2 °F 12.9 °F 60% 29.78 in 10.0 mi WSW 16.1 mph 23.0 mph N/A   Overcast
1:53 AM 24.1 °F 12.0 °F 15.1 °F 69% 29.79 in 8.0 mi SW 13.8 mph - 0.00 in Snow Light Snow
2:53 AM 24.1 °F 12.0 °F 14.0 °F 65% 29.79 in 10.0 mi WSW 13.8 mph 21.9 mph 0.00 in   Overcast
3:53 AM 23.0 °F 12.4 °F 12.9 °F 65% 29.79 in 10.0 mi WSW 10.4 mph - N/A   Overcast
4:53 AM 21.9 °F 8.7 °F 12.0 °F 66% 29.80 in 10.0 mi WSW 15.0 mph 25.3 mph N/A   Mostly Cloudy
5:24 AM 21.2 °F 8.9 °F 14.0 °F 74% 29.78 in 2.5 mi WSW 12.7 mph - 0.00 in Snow Light Snow
5:41 AM 21.2 °F 8.9 °F 14.0 °F 74% 29.78 in 4.0 mi WSW 12.7 mph 21.9 mph 0.00 in Snow Light Snow
5:53 AM 21.0 °F 6.2 °F 14.0 °F 74% 29.82 in 4.0 mi WSW 18.4 mph - 0.00 in Snow Light Snow
6:53 AM 21.0 °F 7.1 °F 12.0 °F 68% 29.84 in 8.0 mi SW 16.1 mph 21.9 mph 0.00 in Snow Light Snow
7:53 AM 19.9 °F 7.9 °F 12.0 °F 71% 29.86 in 5.0 mi WSW 11.5 mph - 0.00 in Snow Light Snow
8:39 AM 21.2 °F 8.3 °F 12.2 °F 68% 29.82 in 2.5 mi WSW 13.8 mph 19.6 mph 0.00 in Snow Light Snow
8:53 AM 19.9 °F 5.2 °F 12.9 °F 74% 29.86 in 1.8 mi WSW 17.3 mph 21.9 mph 0.00 in Snow Light Snow
9:38 AM 19.4 °F 8.6 °F 14.0 °F 80% 29.83 in 0.5 mi West 9.2 mph 18.4 mph 0.00 in Snow Snow
9:53 AM 19.9 °F 13.4 °F 16.0 °F 85% 29.88 in 0.2 mi West 4.6 mph - 0.00 in Fog , Snow Heavy Snow
10:20 AM 19.4 °F 6.0 °F 12.2 °F 74% 29.83 in 1.8 mi West 13.8 mph 24.2 mph 0.02 in Snow Light Snow
10:22 AM 19.4 °F 4.5 °F 12.2 °F 74% 29.83 in 2.5 mi West 17.3 mph 24.2 mph 0.02 in Snow Light Snow
10:30 AM 19.4 °F 7.9 °F 10.4 °F 68% 29.83 in 5.0 mi West 10.4 mph 23.0 mph 0.02 in Snow Light Snow
10:44 AM 21.2 °F 7.8 °F 10.4 °F 63% 29.83 in 6.0 mi West 15.0 mph 27.6 mph 0.02 in   Overcast
10:53 AM 21.0 °F 7.6 °F 9.0 °F 60% 29.88 in 9.0 mi West 15.0 mph 21.9 mph 0.02 in   Overcast
11:53 AM 21.0 °F 7.6 °F 9.0 °F 60% 29.89 in 3.0 mi West 15.0 mph 32.2 mph 0.00 in   Overcast
12:22 PM 21.2 °F 6.8 °F 10.4 °F 63% 29.85 in 2.0 mi West 17.3 mph 26.5 mph 0.00 in Snow Light Snow
12:32 PM 21.2 °F 7.8 °F 8.6 °F 58% 29.85 in 3.0 mi West 15.0 mph 27.6 mph 0.00 in Snow Light Snow
12:53 PM 21.9 °F 7.8 °F 9.0 °F 58% 29.90 in 8.0 mi West 17.3 mph 27.6 mph 0.00 in   Overcast
1:53 PM 21.9 °F 5.5 °F 9.0 °F 58% 29.91 in 10.0 mi West 24.2 mph 34.5 mph 0.00 in   Overcast
2:53 PM 21.9 °F 6.5 °F 9.0 °F 58% 29.93 in 10.0 mi West 20.7 mph 29.9 mph N/A   Overcast
3:53 PM 21.9 °F 6.9 °F 10.0 °F 60% 29.95 in 10.0 mi West 19.6 mph 31.1 mph 0.00 in   Overcast
4:53 PM 21.0 °F 8.1 °F 10.0 °F 63% 29.97 in 9.0 mi West 13.8 mph 25.3 mph 0.00 in   Overcast
5:53 PM 21.0 °F 6.6 °F 10.0 °F 63% 30.00 in 10.0 mi WSW 17.3 mph 27.6 mph N/A   Overcast
6:53 PM 19.9 °F 6.7 °F 10.0 °F 65% 30.01 in 10.0 mi West 13.8 mph 29.9 mph N/A   Overcast
7:53 PM 19.9 °F 6.7 °F 10.9 °F 68% 30.03 in 9.0 mi West 13.8 mph 26.5 mph 0.00 in Snow Light Snow
8:53 PM 19.9 °F 3.5 °F 10.0 °F 65% 30.04 in 7.0 mi West 21.9 mph 29.9 mph 0.00 in Snow Light Snow
9:18 PM 19.4 °F 4.5 °F 10.4 °F 68% 30.01 in 9.0 mi West 17.3 mph 25.3 mph 0.00 in Snow Light Snow
9:53 PM 19.0 °F 7.5 °F 10.0 °F 68% 30.06 in 7.0 mi West 10.4 mph 24.2 mph 0.00 in Snow Light Snow
10:53 PM 19.0 °F 6.1 °F 8.1 °F 62% 30.07 in 10.0 mi West 12.7 mph 24.2 mph 0.00 in   Overcast
11:53 PM 19.0 °F 8.2 °F 9.0 °F 65% 30.05 in 10.0 mi West 9.2 mph - N/A   Overcast